Total_Precipitation_Accumulation
0.80 0.81 0.69 0.50 0.47 0.45 0.40 0.34 0.27 0.17 0.16 0.24 0.22 0.16 0.12 0.12 0.13 0.11 0.10 0.11 0.10 0.10 0.09 0.11 0.16 0.20 0.24 0.32 0.41 0.46 0.50 0.59 0.72 0.83 0.89 0.88 0.94 0.90 0.82 0.75 0.79 0.80 0.77 0.70
0.88 0.68 0.32 0.23 0.29 0.37 0.44 0.44 0.29 0.20 0.19 0.26 0.22 0.13 0.09 0.09 0.11 0.10 0.10 0.10 0.09 0.09 0.10 0.11 0.16 0.24 0.27 0.32 0.40 0.48 0.50 0.54 0.62 0.65 0.73 0.79 0.80 0.83 0.84 0.77 0.76 0.81 0.82 0.76
0.64 0.43 0.21 0.24 0.32 0.42 0.43 0.40 0.29 0.24 0.22 0.26 0.26 0.19 0.08 0.07 0.07 0.08 0.08 0.09 0.08 0.09 0.10 0.10 0.13 0.23 0.28 0.30 0.38 0.44 0.51 0.51 0.59 0.65 0.78 0.87 0.93 0.94 0.93 0.88 0.82 0.80 0.81 0.79
0.44 0.30 0.30 0.34 0.33 0.37 0.42 0.28 0.26 0.27 0.39 0.42 0.33 0.35 0.10 0.07 0.08 0.09 0.09 0.09 0.09 0.10 0.11 0.10 0.12 0.19 0.25 0.28 0.37 0.44 0.52 0.59 0.60 0.69 0.79 0.79 0.80 0.81 0.75 0.75 0.76 0.80 0.82 0.81
0.47 0.33 0.39 0.41 0.28 0.28 0.33 0.27 0.30 0.33 0.44 0.49 0.32 0.36 0.13 0.06 0.11 0.13 0.14 0.13 0.11 0.11 0.12 0.11 0.12 0.17 0.23 0.29 0.37 0.46 0.51 0.63 0.66 0.67 0.74 0.74 0.70 0.69 0.72 0.77 0.82 0.82 0.85 0.86
0.39 0.31 0.37 0.32 0.23 0.24 0.33 0.43 0.55 0.57 0.74 0.84 0.30 0.27 0.15 0.11 0.15 0.15 0.13 0.14 0.16 0.15 0.15 0.15 0.14 0.17 0.23 0.30 0.39 0.44 0.51 0.62 0.71 0.70 0.75 0.75 0.72 0.70 0.76 0.81 0.89 0.89 0.90 0.93
0.57 0.41 0.41 0.35 0.40 0.43 0.57 0.90 1.35 1.43 1.39 0.80 0.15 0.16 0.16 0.12 0.11 0.13 0.11 0.12 0.18 0.20 0.20 0.20 0.17 0.19 0.22 0.29 0.39 0.44 0.48 0.61 0.71 0.72 0.74 0.75 0.71 0.69 0.73 0.78 0.83 0.87 0.89 0.92
0.74 0.56 0.41 0.42 0.48 0.59 0.63 0.78 1.06 1.06 0.74 0.28 0.09 0.11 0.11 0.08 0.05 0.06 0.06 0.07 0.10 0.14 0.21 0.23 0.19 0.20 0.24 0.28 0.35 0.42 0.45 0.54 0.69 0.70 0.71 0.73 0.72 0.68 0.70 0.74 0.77 0.81 0.79 0.78
0.81 0.56 0.31 0.29 0.28 0.41 0.59 0.61 0.52 0.71 0.51 0.29 0.15 0.10 0.09 0.06 0.04 0.04 0.06 0.08 0.09 0.10 0.15 0.22 0.20 0.23 0.26 0.31 0.33 0.41 0.47 0.53 0.66 0.73 0.71 0.72 0.74 0.73 0.66 0.70 0.73 0.80 0.79 0.71
0.92 0.71 0.36 0.30 0.36 0.43 0.52 0.60 0.72 1.04 0.84 0.44 0.19 0.12 0.14 0.11 0.07 0.05 0.07 0.10 0.10 0.10 0.14 0.18 0.18 0.22 0.28 0.33 0.32 0.37 0.48 0.52 0.61 0.71 0.73 0.76 0.78 0.77 0.71 0.70 0.72 0.72 0.77 0.76
0.85 0.89 0.56 0.51 0.59 0.55 0.55 0.74 1.00 1.04 0.76 0.58 0.34 0.21 0.19 0.15 0.10 0.08 0.08 0.10 0.12 0.11 0.14 0.16 0.17 0.21 0.27 0.32 0.32 0.33 0.41 0.52 0.61 0.67 0.70 0.76 0.86 0.84 0.81 0.78 0.73 0.69 0.70 0.77
0.84 1.06 0.79 0.52 0.45 0.40 0.52 0.65 0.81 1.04 0.79 0.45 0.39 0.27 0.19 0.14 0.11 0.09 0.08 0.10 0.12 0.12 0.14 0.14 0.16 0.20 0.24 0.27 0.31 0.34 0.38 0.47 0.58 0.68 0.70 0.73 0.83 0.90 0.87 0.91 0.89 0.79 0.70 0.71
1.05 1.37 1.21 0.90 0.78 0.67 0.70 0.62 0.63 0.72 0.73 0.54 0.44 0.28 0.17 0.13 0.10 0.08 0.08 0.09 0.12 0.14 0.17 0.15 0.15 0.17 0.22 0.25 0.30 0.34 0.37 0.42 0.52 0.67 0.71 0.75 0.79 0.87 0.89 0.92 0.99 0.98 0.93 0.93
1.24 1.44 1.09 0.99 0.88 0.80 0.74 0.55 0.51 0.72 0.85 0.54 0.34 0.23 0.16 0.14 0.12 0.10 0.09 0.09 0.11 0.15 0.17 0.16 0.15 0.16 0.21 0.25 0.28 0.31 0.32 0.40 0.49 0.65 0.76 0.78 0.81 0.82 0.86 0.91 0.96 1.08 1.15 1.21
1.29 1.29 0.59 0.37 0.35 0.42 0.46 0.37 0.38 0.54 0.53 0.43 0.24 0.21 0.24 0.20 0.15 0.14 0.12 0.10 0.11 0.13 0.14 0.13 0.15 0.17 0.19 0.23 0.26 0.27 0.29 0.36 0.45 0.60 0.71 0.77 0.83 0.93 0.99 1.02 1.04 1.08 1.21 1.28
1.20 1.17 0.58 0.32 0.21 0.28 0.32 0.23 0.23 0.26 0.25 0.26 0.20 0.21 0.24 0.21 0.16 0.14 0.14 0.12 0.12 0.13 0.11 0.12 0.13 0.17 0.20 0.22 0.24 0.23 0.25 0.33 0.42 0.56 0.65 0.73 0.86 0.98 1.10 1.12 1.17 1.19 1.23 1.31
1.04 1.00 0.86 0.51 0.24 0.40 0.46 0.23 0.21 0.22 0.20 0.21 0.25 0.25 0.21 0.19 0.17 0.16 0.15 0.15 0.14 0.11 0.10 0.10 0.12 0.16 0.18 0.20 0.21 0.22 0.24 0.30 0.35 0.47 0.59 0.66 0.80 0.93 1.03 1.06 1.10 1.13 1.06 1.05
0.82 0.92 1.13 0.77 0.56 0.79 0.38 0.16 0.16 0.19 0.20 0.19 0.21 0.21 0.20 0.20 0.19 0.16 0.16 0.15 0.13 0.11 0.11 0.11 0.13 0.14 0.15 0.18 0.19 0.19 0.20 0.25 0.34 0.41 0.54 0.59 0.69 0.83 0.89 0.95 1.00 1.01 0.93 0.92
0.49 0.86 1.31 1.08 0.81 0.46 0.20 0.15 0.19 0.26 0.31 0.22 0.20 0.18 0.16 0.16 0.17 0.19 0.19 0.15 0.13 0.11 0.11 0.11 0.12 0.13 0.13 0.16 0.18 0.18 0.18 0.21 0.27 0.35 0.45 0.52 0.61 0.77 0.78 0.84 0.93 0.92 0.92 0.91
0.46 0.84 1.41 1.21 0.90 0.45 0.22 0.12 0.14 0.24 0.40 0.22 0.17 0.18 0.17 0.17 0.30 0.27 0.24 0.18 0.14 0.10 0.10 0.10 0.11 0.10 0.11 0.14 0.16 0.16 0.16 0.19 0.24 0.31 0.38 0.44 0.49 0.64 0.67 0.68 0.74 0.76 0.78 0.82
0.74 1.12 1.31 0.99 0.76 0.35 0.18 0.14 0.17 0.45 0.52 0.21 0.15 0.16 0.17 0.22 0.32 0.28 0.22 0.20 0.15 0.12 0.11 0.10 0.10 0.11 0.11 0.13 0.15 0.15 0.15 0.18 0.23 0.28 0.32 0.37 0.41 0.48 0.53 0.58 0.61 0.65 0.69 0.74
0.53 0.75 0.76 0.71 0.80 0.43 0.19 0.21 0.38 0.46 0.24 0.15 0.13 0.12 0.14 0.14 0.13 0.14 0.16 0.17 0.15 0.14 0.14 0.13 0.12 0.11 0.11 0.13 0.14 0.13 0.14 0.18 0.20 0.26 0.31 0.35 0.40 0.42 0.45 0.50 0.56 0.58 0.67 0.77
0.36 0.47 0.52 0.51 0.44 0.27 0.20 0.26 0.28 0.20 0.16 0.12 0.13 0.13 0.13 0.13 0.12 0.13 0.14 0.14 0.13 0.14 0.15 0.14 0.13 0.14 0.12 0.12 0.13 0.12 0.12 0.17 0.21 0.27 0.30 0.36 0.40 0.38 0.45 0.51 0.58 0.61 0.69 0.78
0.27 0.25 0.31 0.28 0.19 0.14 0.15 0.16 0.16 0.14 0.12 0.11 0.12 0.14 0.13 0.13 0.11 0.12 0.13 0.13 0.15 0.14 0.13 0.12 0.13 0.14 0.14 0.12 0.12 0.11 0.13 0.17 0.22 0.26 0.29 0.34 0.41 0.42 0.43 0.48 0.57 0.62 0.67 0.82
0.22 0.23 0.26 0.22 0.13 0.11 0.11 0.12 0.13 0.13 0.10 0.08 0.10 0.12 0.12 0.11 0.11 0.12 0.14 0.15 0.15 0.15 0.13 0.12 0.12 0.13 0.14 0.13 0.11 0.10 0.14 0.19 0.23 0.25 0.28 0.34 0.42 0.46 0.43 0.45 0.51 0.58 0.62 0.82
0.14 0.18 0.22 0.18 0.10 0.12 0.10 0.08 0.08 0.10 0.10 0.09 0.11 0.12 0.10 0.10 0.12 0.12 0.13 0.14 0.14 0.14 0.14 0.14 0.12 0.12 0.12 0.11 0.10 0.12 0.15 0.20 0.27 0.30 0.32 0.36 0.44 0.45 0.44 0.45 0.48 0.56 0.60 0.67